DAL28 KJFK-LFMN

Flight info

Callsign DAL28
Flight time N/A
Altitude 33000
Route BETTE DCT RIFLE Q430 ACK DCT DOVEY/M081F330 DCT 42N060W 43N050W 44N040W 46N030W 46N020W 46N015W DCT SIVIR DCT RIVAK/N0469F330 DCT ERWAN DCT GALOF DCT CNA DCT LERGA DCT LIQID DCT LATAM DCT TUNUR DCT NISAR
Aircraft B764/H-SDE3FGHIM3RWXY/LB1

Departure

Time 2026-04-30 11:34
Airport John F. Kennedy International Airport (KJFK)

Arrival

Time N/A
Airport Nice-Côte d'Azur Airport (LFMN)
Time Latitude Longitude Altitude Speed Heading
2026-04-30 10:54 40.63855 -73.78196 18 ft 0 kts 83°
2026-04-30 11:12 40.63855 -73.78198 18 ft 1 kts 83°
2026-04-30 11:12 40.63853 -73.78217 18 ft 2 kts 86°
2026-04-30 11:13 40.63854 -73.78236 18 ft 2 kts 99°
2026-04-30 11:13 40.63858 -73.78255 18 ft 2 kts 109°
2026-04-30 11:13 40.63864 -73.78273 18 ft 2 kts 120°
2026-04-30 11:13 40.63872 -73.78289 19 ft 2 kts 130°
2026-04-30 11:14 40.63882 -73.78303 19 ft 1 kts 140°
2026-04-30 11:14 40.63885 -73.78306 19 ft 0 kts 142°
2026-04-30 11:16 40.63875 -73.78299 19 ft 5 kts 160°
2026-04-30 11:16 40.63817 -73.78285 18 ft 10 kts 173°
2026-04-30 11:17 40.63732 -73.78272 18 ft 13 kts 173°
2026-04-30 11:17 40.63648 -73.78259 18 ft 11 kts 173°
2026-04-30 11:17 40.63580 -73.78257 18 ft 8 kts 188°
2026-04-30 11:17 40.63541 -73.78281 18 ft 4 kts 218°
2026-04-30 11:18 40.63537 -73.78311 18 ft 5 kts 289°
2026-04-30 11:18 40.63618 -73.78497 18 ft 13 kts 301°
2026-04-30 11:18 40.63661 -73.78590 18 ft 11 kts 300°
2026-04-30 11:19 40.63721 -73.78724 18 ft 24 kts 300°
2026-04-30 11:19 40.63806 -73.78918 18 ft 24 kts 300°
2026-04-30 11:19 40.63889 -73.79101 18 ft 21 kts 301°
2026-04-30 11:19 40.63963 -73.79260 18 ft 19 kts 301°
2026-04-30 11:20 40.64024 -73.79394 19 ft 15 kts 300°
2026-04-30 11:20 40.64088 -73.79491 19 ft 13 kts 332°
2026-04-30 11:20 40.64185 -73.79504 19 ft 14 kts
2026-04-30 11:20 40.64288 -73.79497 19 ft 14 kts
2026-04-30 11:21 40.64380 -73.79492 19 ft 11 kts
2026-04-30 11:21 40.64456 -73.79497 19 ft 10 kts 355°
2026-04-30 11:21 40.64532 -73.79506 19 ft 13 kts 355°
2026-04-30 11:21 40.64628 -73.79548 19 ft 14 kts 323°
2026-04-30 11:22 40.64710 -73.79623 19 ft 14 kts 324°
2026-04-30 11:22 40.64785 -73.79690 19 ft 10 kts 333°
2026-04-30 11:22 40.64850 -73.79705 20 ft 9 kts 360°
2026-04-30 11:22 40.64930 -73.79703 20 ft 13 kts
2026-04-30 11:23 40.65025 -73.79682 19 ft 12 kts 28°
2026-04-30 11:23 40.65079 -73.79609 20 ft 8 kts 62°
2026-04-30 11:23 40.65167 -73.79399 20 ft 19 kts 60°
2026-04-30 11:24 40.65212 -73.79240 20 ft 16 kts 92°
2026-04-30 11:24 40.65182 -73.79108 20 ft 13 kts 109°
2026-04-30 11:24 40.65155 -73.78996 20 ft 12 kts 107°
2026-04-30 11:25 40.65158 -73.78726 20 ft 14 kts 69°
2026-04-30 11:25 40.65201 -73.78622 20 ft 12 kts 60°
2026-04-30 11:25 40.65285 -73.78467 19 ft 5 kts
2026-04-30 11:26 40.65361 -73.78438 19 ft 9 kts 55°
2026-04-30 11:26 40.65397 -73.78371 19 ft 8 kts 55°
2026-04-30 11:26 40.65425 -73.78316 19 ft 6 kts 57°
2026-04-30 11:27 40.65449 -73.78261 19 ft 7 kts 61°
2026-04-30 11:27 40.65485 -73.78175 19 ft 9 kts 61°
2026-04-30 11:27 40.65487 -73.78106 19 ft 6 kts 117°
2026-04-30 11:27 40.65463 -73.78050 19 ft 7 kts 120°
2026-04-30 11:28 40.65345 -73.77791 18 ft 26 kts 121°
2026-04-30 11:28 40.65246 -73.77573 18 ft 27 kts 121°
2026-04-30 11:28 40.65154 -73.77369 19 ft 24 kts 121°
2026-04-30 11:29 40.65070 -73.77186 19 ft 21 kts 121°
2026-04-30 11:29 40.64998 -73.77028 19 ft 19 kts 120°
2026-04-30 11:29 40.64888 -73.76782 20 ft 9 kts 120°
2026-04-30 11:30 40.64932 -73.76659 20 ft 11 kts 29°
2026-04-30 11:30 40.64998 -73.76606 20 ft 10 kts 32°
2026-04-30 11:30 40.65052 -73.76562 20 ft 7 kts 31°
2026-04-30 11:31 40.65091 -73.76527 20 ft 5 kts 40°
2026-04-30 11:31 40.65102 -73.76485 20 ft 6 kts 102°
2026-04-30 11:31 40.65084 -73.76435 20 ft 5 kts 119°
2026-04-30 11:31 40.65066 -73.76395 20 ft 4 kts 119°
2026-04-30 11:32 40.65042 -73.76360 20 ft 4 kts 161°
2026-04-30 11:32 40.65014 -73.76365 20 ft 3 kts 204°
2026-04-30 11:32 40.65006 -73.76371 20 ft 1 kts 210°
2026-04-30 11:33 40.64904 -73.76449 20 ft 36 kts 210°
2026-04-30 11:33 40.64556 -73.76716 20 ft 77 kts 211°
2026-04-30 11:33 40.63980 -73.77168 18 ft 114 kts 210°
2026-04-30 11:33 40.63198 -73.77777 17 ft 147 kts 211°
2026-04-30 11:34 40.62221 -73.78542 61 ft 173 kts 210°
2026-04-30 11:34 40.61136 -73.79355 226 ft 186 kts 207°
2026-04-30 11:34 40.59969 -73.80160 594 ft 195 kts 206°
2026-04-30 11:34 40.58714 -73.81003 881 ft 210 kts 206°
2026-04-30 11:35 40.57337 -73.81825 1196 ft 222 kts 193°
2026-04-30 11:35 40.55726 -73.81791 1326 ft 245 kts 160°
2026-04-30 11:35 40.54291 -73.80511 1771 ft 255 kts 128°
2026-04-30 11:35 40.53563 -73.78385 2372 ft 261 kts 98°
2026-04-30 11:36 40.53723 -73.76011 2896 ft 269 kts 71°
2026-04-30 11:36 40.54407 -73.73729 3527 ft 272 kts 67°
2026-04-30 11:36 40.55141 -73.71392 4156 ft 276 kts 67°
2026-04-30 11:36 40.55866 -73.69096 4809 ft 277 kts 67°
2026-04-30 11:37 40.56479 -73.66695 5428 ft 280 kts 77°
2026-04-30 11:37 40.56917 -73.64164 6016 ft 284 kts 80°
2026-04-30 11:37 40.57120 -73.61588 6615 ft 287 kts 87°
2026-04-30 11:37 40.57242 -73.58955 7220 ft 291 kts 87°
2026-04-30 11:38 40.57379 -73.56280 7831 ft 294 kts 87°
2026-04-30 11:38 40.57531 -73.53556 8445 ft 298 kts 87°
2026-04-30 11:38 40.57690 -73.50833 9010 ft 302 kts 87°
2026-04-30 11:38 40.57868 -73.48065 9593 ft 306 kts 87°
2026-04-30 11:39 40.58060 -73.45266 10151 ft 310 kts 87°
2026-04-30 11:39 40.58265 -73.42378 10376 ft 328 kts 87°
2026-04-30 11:39 40.58471 -73.39275 10425 ft 354 kts 87°
2026-04-30 11:39 40.58692 -73.35921 10482 ft 380 kts 87°
2026-04-30 11:40 40.58919 -73.32391 11034 ft 391 kts 87°
2026-04-30 11:40 40.59144 -73.28838 11732 ft 397 kts 87°
2026-04-30 11:40 40.59377 -73.25196 12471 ft 403 kts 87°
2026-04-30 11:40 40.59613 -73.21522 13146 ft 409 kts 87°
2026-04-30 11:41 40.59853 -73.17754 13820 ft 416 kts 87°
2026-04-30 11:41 40.60100 -73.13973 14522 ft 421 kts 87°
2026-04-30 11:41 40.60478 -73.10116 15171 ft 428 kts 81°
2026-04-30 11:41 40.60961 -73.06244 15881 ft 432 kts 83°
2026-04-30 11:42 40.61408 -73.02328 16546 ft 437 kts 83°
2026-04-30 11:42 40.61857 -72.98342 17176 ft 444 kts 83°
2026-04-30 11:42 40.62301 -72.94338 17845 ft 449 kts 83°
2026-04-30 11:42 40.62748 -72.90274 18511 ft 454 kts 83°
2026-04-30 11:43 40.63203 -72.86101 19185 ft 459 kts 83°
2026-04-30 11:43 40.63655 -72.81956 19967 ft 461 kts 83°
2026-04-30 11:43 40.64108 -72.77772 20564 ft 467 kts 83°
2026-04-30 11:43 40.64561 -72.73565 21288 ft 469 kts 83°
2026-04-30 11:44 40.65024 -72.69258 21859 ft 474 kts 83°
2026-04-30 11:44 40.65481 -72.64995 22501 ft 476 kts 84°
2026-04-30 11:44 40.65941 -72.60674 22999 ft 482 kts 84°
2026-04-30 11:44 40.66406 -72.56306 23589 ft 484 kts 84°
2026-04-30 11:45 40.66871 -72.51910 24119 ft 488 kts 83°
2026-04-30 11:45 40.67335 -72.47507 24587 ft 492 kts 84°
2026-04-30 11:45 40.67805 -72.43036 25125 ft 495 kts 84°
2026-04-30 11:45 40.68276 -72.38539 25612 ft 498 kts 83°
2026-04-30 11:46 40.68749 -72.34000 26010 ft 503 kts 84°
2026-04-30 11:46 40.69216 -72.29507 26565 ft 503 kts 84°
2026-04-30 11:46 40.69692 -72.24903 26938 ft 507 kts 84°
2026-04-30 11:46 40.70169 -72.20278 27299 ft 511 kts 84°
2026-04-30 11:47 40.70645 -72.15642 27823 ft 511 kts 84°
2026-04-30 11:47 40.71116 -72.11034 28158 ft 515 kts 84°
2026-04-30 11:47 40.71589 -72.06387 28561 ft 516 kts 84°
2026-04-30 11:47 40.72067 -72.01673 28849 ft 519 kts 84°
2026-04-30 11:48 40.72546 -71.96925 29217 ft 520 kts 84°
2026-04-30 11:48 40.73016 -71.92254 29380 ft 525 kts 84°
2026-04-30 11:48 40.73495 -71.87474 29877 ft 523 kts 84°
2026-04-30 11:48 40.73971 -71.82703 30077 ft 525 kts 84°
2026-04-30 11:49 40.74445 -71.77923 30371 ft 526 kts 84°
2026-04-30 11:49 40.74920 -71.73128 30705 ft 525 kts 84°
2026-04-30 11:49 40.75388 -71.68354 31000 ft 525 kts 84°
2026-04-30 11:49 40.75851 -71.63644 31183 ft 527 kts 84°
2026-04-30 11:50 40.76320 -71.58821 31458 ft 526 kts 84°
2026-04-30 11:50 40.76786 -71.54025 31682 ft 527 kts 84°
2026-04-30 11:50 40.77245 -71.49281 31869 ft 528 kts 84°
2026-04-30 11:50 40.77704 -71.44525 32246 ft 525 kts 83°
2026-04-30 11:51 40.78161 -71.39747 32425 ft 527 kts 83°
2026-04-30 11:51 40.78615 -71.34998 32590 ft 528 kts 84°
2026-04-30 11:51 40.79073 -71.30174 32829 ft 525 kts 84°
2026-04-30 11:51 40.79522 -71.25431 32830 ft 521 kts 84°
2026-04-30 11:52 40.80412 -71.15953 32845 ft 523 kts 84°
2026-04-30 11:52 40.81300 -71.06409 32838 ft 524 kts 84°
2026-04-30 11:53 40.82178 -70.96912 32843 ft 525 kts 84°
2026-04-30 11:53 40.83049 -70.87383 32852 ft 522 kts 84°
2026-04-30 11:54 40.83910 -70.77869 32848 ft 521 kts 84°
2026-04-30 11:54 40.84759 -70.68417 32842 ft 521 kts 84°
2026-04-30 11:55 40.85600 -70.58943 32849 ft 520 kts 84°
2026-04-30 11:55 40.86434 -70.49474 32847 ft 519 kts 84°
2026-04-30 11:56 40.87259 -70.40008 32848 ft 517 kts 84°
2026-04-30 11:56 40.88067 -70.30653 32838 ft 517 kts 85°
2026-04-30 11:57 40.88873 -70.21246 32842 ft 516 kts 85°
2026-04-30 11:57 40.89668 -70.11839 32840 ft 514 kts 85°
2026-04-30 11:58 40.90456 -70.02457 32840 ft 514 kts 85°
2026-04-30 11:58 40.91232 -69.93103 32845 ft 514 kts 85°
2026-04-30 11:59 40.92000 -69.83766 32845 ft 512 kts 85°
2026-04-30 11:59 40.92761 -69.74423 32840 ft 510 kts 85°
2026-04-30 12:00 40.93507 -69.65165 32846 ft 511 kts 85°
2026-04-30 12:00 40.94255 -69.55791 32846 ft 510 kts 85°
2026-04-30 12:01 40.94986 -69.46529 32842 ft 508 kts 85°
2026-04-30 12:01 40.95708 -69.37284 32853 ft 509 kts 85°
2026-04-30 12:02 40.96425 -69.28007 32835 ft 504 kts 85°
2026-04-30 12:02 40.97127 -69.18810 32845 ft 506 kts 86°
2026-04-30 12:03 40.98172 -69.04983 32845 ft 504 kts 86°
2026-04-30 12:04 40.98858 -68.95760 32852 ft 504 kts 85°
2026-04-30 12:04 40.99535 -68.86565 32845 ft 502 kts 86°
2026-04-30 12:05 41.00203 -68.77390 32861 ft 501 kts 86°
2026-04-30 12:05 41.00859 -68.68284 32855 ft 500 kts 86°
2026-04-30 12:06 41.01512 -68.59115 32846 ft 499 kts 86°
2026-04-30 12:06 41.02156 -68.49975 32854 ft 500 kts 86°
2026-04-30 12:07 41.02790 -68.40874 32858 ft 496 kts 86°
2026-04-30 12:07 41.03415 -68.31793 32861 ft 496 kts 86°
2026-04-30 12:08 41.04030 -68.22736 32860 ft 496 kts 87°
2026-04-30 12:08 41.04641 -68.13652 32857 ft 494 kts 86°
2026-04-30 12:09 41.05240 -68.04631 32870 ft 493 kts 87°
2026-04-30 12:09 41.05833 -67.95599 32865 ft 493 kts 86°
2026-04-30 12:10 41.06416 -67.86588 32864 ft 494 kts 86°
2026-04-30 12:10 41.06997 -67.77533 32872 ft 494 kts 87°
2026-04-30 12:11 41.07567 -67.68542 32876 ft 493 kts 86°
2026-04-30 12:11 41.08134 -67.59457 32874 ft 493 kts 87°
2026-04-30 12:12 41.08687 -67.50481 32874 ft 493 kts 87°
2026-04-30 12:12 41.09241 -67.41374 32881 ft 495 kts 87°
2026-04-30 12:13 41.09783 -67.32347 32874 ft 494 kts 87°
2026-04-30 12:13 41.10318 -67.23339 32888 ft 492 kts 87°
2026-04-30 12:14 41.10849 -67.14273 32878 ft 494 kts 88°
2026-04-30 12:14 41.11371 -67.05218 32880 ft 493 kts 87°
2026-04-30 12:15 41.12105 -66.96230 32890 ft 495 kts 79°
2026-04-30 12:15 41.13616 -66.87306 32888 ft 496 kts 79°
2026-04-30 12:16 41.15053 -66.78400 32888 ft 495 kts 79°
2026-04-30 12:16 41.16469 -66.69417 32896 ft 496 kts 79°
2026-04-30 12:17 41.18552 -66.56023 32884 ft 496 kts 79°
2026-04-30 12:17 41.19930 -66.47078 32889 ft 497 kts 79°
2026-04-30 12:18 41.21302 -66.38123 32884 ft 497 kts 79°
2026-04-30 12:18 41.22675 -66.29112 32884 ft 497 kts 80°
2026-04-30 12:19 41.24034 -66.20139 32886 ft 498 kts 80°
2026-04-30 12:19 41.25391 -66.11130 32890 ft 497 kts 80°
2026-04-30 12:20 41.26740 -66.02126 32896 ft 497 kts 80°
2026-04-30 12:20 41.28080 -65.93130 32897 ft 499 kts 80°
2026-04-30 12:21 41.29416 -65.84110 32896 ft 499 kts 80°
2026-04-30 12:21 41.30741 -65.75109 32899 ft 499 kts 80°
2026-04-30 12:22 41.32062 -65.66088 32901 ft 500 kts 80°
2026-04-30 12:22 41.33380 -65.57028 32901 ft 500 kts 80°
2026-04-30 12:23 41.34698 -65.47933 32907 ft 500 kts 80°
2026-04-30 12:23 41.36003 -65.38861 32904 ft 501 kts 80°
2026-04-30 12:24 41.37301 -65.29785 32904 ft 502 kts 81°
2026-04-30 12:24 41.38592 -65.20712 32914 ft 501 kts 81°
2026-04-30 12:25 41.39887 -65.11546 32913 ft 502 kts 81°
2026-04-30 12:25 41.41165 -65.02451 32920 ft 503 kts 81°
2026-04-30 12:26 41.42444 -64.93295 32924 ft 504 kts 81°
2026-04-30 12:26 41.43718 -64.84116 32919 ft 504 kts 81°
2026-04-30 12:27 41.44978 -64.74987 32923 ft 503 kts 81°
2026-04-30 12:27 41.46231 -64.65846 32934 ft 505 kts 81°
2026-04-30 12:28 41.47490 -64.56620 32934 ft 505 kts 80°
2026-04-30 12:28 41.48734 -64.47431 32935 ft 505 kts 80°
2026-04-30 12:29 41.49974 -64.38208 32942 ft 506 kts 80°
2026-04-30 12:29 41.51204 -64.29014 32940 ft 506 kts 81°
2026-04-30 12:30 41.52429 -64.19789 32947 ft 506 kts 81°
2026-04-30 12:30 41.53643 -64.10590 32941 ft 507 kts 81°
2026-04-30 12:31 41.54860 -64.01320 32947 ft 507 kts 81°
2026-04-30 12:31 41.56070 -63.92036 32948 ft 507 kts 81°
2026-04-30 12:32 41.57264 -63.82820 32955 ft 509 kts 81°
2026-04-30 12:32 41.58458 -63.73537 32951 ft 509 kts 81°
2026-04-30 12:33 41.59653 -63.64184 32951 ft 509 kts 80°
2026-04-30 12:33 41.60829 -63.54919 32957 ft 510 kts 80°
2026-04-30 12:34 41.62009 -63.45560 32964 ft 510 kts 80°
2026-04-30 12:34 41.63174 -63.36258 32968 ft 511 kts 80°
2026-04-30 12:35 41.64336 -63.26913 32962 ft 510 kts 81°
2026-04-30 12:35 41.65488 -63.17588 32967 ft 511 kts 81°
2026-04-30 12:36 41.66638 -63.08211 32974 ft 513 kts 81°
2026-04-30 12:36 41.67777 -62.98857 32977 ft 513 kts 80°
2026-04-30 12:37 41.68914 -62.89458 32978 ft 512 kts 80°
2026-04-30 12:37 41.70042 -62.80064 32981 ft 513 kts 80°
2026-04-30 12:38 41.71159 -62.70701 32982 ft 512 kts 80°
2026-04-30 12:38 41.72272 -62.61293 32985 ft 512 kts 80°
2026-04-30 12:39 41.73381 -62.51866 32989 ft 513 kts 80°
2026-04-30 12:39 41.74477 -62.42460 32993 ft 513 kts 80°
2026-04-30 12:40 41.75571 -62.33019 32994 ft 513 kts 81°
2026-04-30 12:40 41.76652 -62.23614 32987 ft 513 kts 81°
2026-04-30 12:41 41.77725 -62.14218 32996 ft 513 kts 80°
2026-04-30 12:41 41.78795 -62.04763 32994 ft 513 kts 80°
2026-04-30 12:42 41.79857 -61.95317 32998 ft 513 kts 80°
2026-04-30 12:42 41.80903 -61.85937 33003 ft 512 kts 80°
2026-04-30 12:43 41.81950 -61.76482 33000 ft 512 kts 80°
2026-04-30 12:43 41.82978 -61.67123 33004 ft 512 kts 80°
2026-04-30 12:44 41.84010 -61.57645 33004 ft 511 kts 80°
2026-04-30 12:44 41.85026 -61.48260 32999 ft 511 kts 80°
2026-04-30 12:45 41.86028 -61.38912 33002 ft 510 kts 80°
2026-04-30 12:45 41.87033 -61.29471 32994 ft 510 kts 81°
2026-04-30 12:46 41.88018 -61.20145 32999 ft 509 kts 81°
2026-04-30 12:46 41.89003 -61.10738 33003 ft 509 kts 81°
2026-04-30 12:47 41.89980 -61.01340 33001 ft 509 kts 81°
2026-04-30 12:47 41.90944 -60.91988 33001 ft 508 kts 81°
2026-04-30 12:48 41.91901 -60.82613 33010 ft 507 kts 81°
2026-04-30 12:48 41.92845 -60.73308 33009 ft 506 kts 81°
2026-04-30 12:49 41.93781 -60.63996 33012 ft 506 kts 81°
2026-04-30 12:49 41.94713 -60.54645 33016 ft 505 kts 81°
2026-04-30 12:50 41.95634 -60.45332 33020 ft 504 kts 81°
2026-04-30 12:50 41.96540 -60.36083 33021 ft 503 kts 81°
2026-04-30 12:51 41.97447 -60.26751 33021 ft 503 kts 82°
2026-04-30 12:51 41.98341 -60.17473 33024 ft 502 kts 82°
2026-04-30 12:52 41.99228 -60.08182 33024 ft 501 kts 82°
2026-04-30 12:52 42.00127 -59.98962 33021 ft 500 kts 79°
2026-04-30 12:53 42.01466 -59.89840 33026 ft 500 kts 78°
2026-04-30 12:53 42.02799 -59.80672 33028 ft 500 kts 78°
2026-04-30 12:54 42.04110 -59.71547 33031 ft 499 kts 78°
2026-04-30 12:54 42.05418 -59.62379 33034 ft 499 kts 78°
2026-04-30 12:55 42.06707 -59.53283 33028 ft 498 kts 79°
2026-04-30 12:55 42.07997 -59.44130 33037 ft 496 kts 79°
2026-04-30 12:56 42.09273 -59.35017 33038 ft 496 kts 79°
2026-04-30 12:56 42.10531 -59.25973 33027 ft 495 kts 80°
2026-04-30 12:57 42.11793 -59.16850 33033 ft 493 kts 81°
2026-04-30 12:57 42.13029 -59.07855 33031 ft 492 kts 80°
2026-04-30 12:58 42.14263 -58.98817 33030 ft 491 kts 81°
2026-04-30 12:58 42.15489 -58.89798 33036 ft 489 kts 81°
2026-04-30 12:59 42.16708 -58.80759 33037 ft 490 kts 81°
2026-04-30 12:59 42.17912 -58.71780 33043 ft 488 kts 81°
2026-04-30 13:00 42.19109 -58.62799 33044 ft 487 kts 81°
2026-04-30 13:00 42.20299 -58.53817 33043 ft 487 kts 81°
2026-04-30 13:01 42.21481 -58.44833 33046 ft 486 kts 81°
2026-04-30 13:01 42.22651 -58.35898 33055 ft 485 kts 81°
2026-04-30 13:02 42.23807 -58.27000 33050 ft 484 kts 82°
2026-04-30 13:02 42.24958 -58.18089 33055 ft 484 kts 81°
2026-04-30 13:03 42.26109 -58.09112 33058 ft 483 kts 81°
2026-04-30 13:03 42.27242 -58.00230 33061 ft 482 kts 81°
2026-04-30 13:04 42.28374 -57.91295 33061 ft 483 kts 81°
2026-04-30 13:04 42.29490 -57.82427 33056 ft 483 kts 81°
2026-04-30 13:05 42.30613 -57.73452 33061 ft 483 kts 81°
2026-04-30 13:06 42.32270 -57.60092 33062 ft 484 kts 81°
2026-04-30 13:06 42.33371 -57.51137 33062 ft 484 kts 81°
2026-04-30 13:07 42.34459 -57.42236 33067 ft 483 kts 81°
2026-04-30 13:07 42.35549 -57.33254 33073 ft 483 kts 82°
2026-04-30 13:08 42.36622 -57.24352 33069 ft 483 kts 82°
2026-04-30 13:08 42.37690 -57.15434 33070 ft 483 kts 81°
2026-04-30 13:09 42.38757 -57.06456 33080 ft 483 kts 81°
2026-04-30 13:09 42.39814 -56.97512 33071 ft 483 kts 81°
2026-04-30 13:10 42.40861 -56.88584 33073 ft 483 kts 81°
2026-04-30 13:10 42.41906 -56.79616 33078 ft 483 kts 81°
2026-04-30 13:11 42.42942 -56.70657 33081 ft 483 kts 81°
2026-04-30 13:11 42.43967 -56.61729 33082 ft 484 kts 81°
2026-04-30 13:12 42.44994 -56.52719 33082 ft 484 kts 81°
2026-04-30 13:12 42.46011 -56.43735 33085 ft 484 kts 81°
2026-04-30 13:13 42.47523 -56.30253 33087 ft 484 kts 82°
2026-04-30 13:14 42.49025 -56.16722 33087 ft 485 kts 81°
2026-04-30 13:14 42.50500 -56.03276 33090 ft 484 kts 81°
2026-04-30 13:15 42.51966 -55.89763 33092 ft 484 kts 81°
2026-04-30 13:16 42.52932 -55.80776 33089 ft 484 kts 81°
2026-04-30 13:16 42.53892 -55.71779 33096 ft 484 kts 81°
2026-04-30 13:17 42.55316 -55.58295 33091 ft 483 kts 81°
2026-04-30 13:18 42.56729 -55.44768 33098 ft 483 kts 81°
2026-04-30 13:18 42.58123 -55.31261 33094 ft 483 kts 82°
2026-04-30 13:19 42.59044 -55.22249 33094 ft 483 kts 82°
2026-04-30 13:19 42.59956 -55.13247 33094 ft 483 kts 82°
2026-04-30 13:20 42.60860 -55.04257 33091 ft 482 kts 82°
2026-04-30 13:20 42.61758 -54.95258 33095 ft 483 kts 82°
2026-04-30 13:21 42.62648 -54.86261 33099 ft 484 kts 82°
2026-04-30 13:22 42.63979 -54.72672 33104 ft 484 kts 82°
2026-04-30 13:22 42.65292 -54.59096 33099 ft 485 kts 81°
2026-04-30 13:23 42.66590 -54.45496 33105 ft 485 kts 81°
2026-04-30 13:24 42.68296 -54.27357 33107 ft 486 kts 82°
2026-04-30 13:25 42.69976 -54.09182 33104 ft 486 kts 82°
2026-04-30 13:26 42.72030 -53.86512 33120 ft 486 kts 82°
2026-04-30 13:28 42.74045 -53.63745 33123 ft 485 kts 82°
2026-04-30 13:28 42.74809 -53.54821 33114 ft 470 kts 81°
2026-04-30 13:28 42.75188 -53.50415 33119 ft 463 kts 81°
2026-04-30 13:29 42.75909 -53.42002 33107 ft 439 kts 81°
2026-04-30 13:29 42.76590 -53.34019 33103 ft 415 kts 82°
2026-04-30 13:30 42.77533 -53.22833 33099 ft 380 kts 81°
2026-04-30 13:31 42.78114 -53.15893 33101 ft 356 kts 81°
2026-04-30 13:31 42.78898 -53.06419 33093 ft 318 kts 81°
2026-04-30 13:32 42.79364 -53.00730 33068 ft 288 kts 81°
2026-04-30 13:32 42.79774 -52.95660 32624 ft 259 kts 81°
2026-04-30 13:33 42.79676 -52.90671 30897 ft 272 kts 113°
2026-04-30 13:33 42.76878 -52.87885 28607 ft 304 kts 207°
2026-04-30 13:34 42.75552 -52.89963 26655 ft 328 kts 277°
2026-04-30 13:34 42.78476 -52.90686 23040 ft 319 kts 137°
2026-04-30 13:35 42.76519 -52.89389 22661 ft 306 kts 156°
2026-04-30 13:35 42.74279 -52.87045 24532 ft 194 kts 120°
2026-04-30 13:36 42.71872 -52.84477 22714 ft 235 kts 184°
2026-04-30 13:36 42.70412 -52.85383 21653 ft 276 kts 256°
2026-04-30 13:36 42.73144 -52.87933 19390 ft 275 kts 20°
2026-04-30 13:37 42.74427 -52.87126 21172 ft 173 kts 56°
2026-04-30 13:37 42.73531 -52.85588 15804 ft 364 kts 216°
2026-04-30 13:38 42.70303 -52.88665 18788 ft 197 kts 181°
2026-04-30 13:38 42.69077 -52.88772 18634 ft 191 kts 173°
2026-04-30 13:38 42.66517 -52.90686 16711 ft 253 kts 278°
2026-04-30 13:39 42.68608 -52.90711 14059 ft 265 kts 98°
2026-04-30 13:39 42.67593 -52.87589 15675 ft 171 kts 150°
2026-04-30 13:40 42.66521 -52.87918 12201 ft 316 kts 264°
2026-04-30 13:40 42.67077 -52.90752 11482 ft 310 kts 309°
2026-04-30 13:40 42.68330 -52.92209 13743 ft 200 kts 346°
2026-04-30 13:40 42.69479 -52.92382 13921 ft 177 kts 39°
2026-04-30 13:41 42.69671 -52.90987 10533 ft 301 kts 151°
2026-04-30 13:41 42.67641 -52.90588 10228 ft 283 kts 180°
2026-04-30 13:41 42.66189 -52.90291 12287 ft 177 kts 148°
2026-04-30 13:41 42.65310 -52.89434 12301 ft 167 kts 140°
2026-04-30 13:42 42.64109 -52.88840 10939 ft 230 kts 203°
2026-04-30 13:42 42.63419 -52.90642 9566 ft 263 kts 308°
2026-04-30 13:42 42.64604 -52.89481 7785 ft 252 kts 178°
2026-04-30 13:43 42.63497 -52.90949 7306 ft 249 kts 293°
2026-04-30 13:43 42.64572 -52.91973 7287 ft 214 kts 44°
2026-04-30 13:43 42.64332 -52.90405 4393 ft 290 kts 159°
2026-04-30 13:43 42.62626 -52.90047 5795 ft 209 kts 162°
2026-04-30 13:44 42.61670 -52.89416 6975 ft 132 kts 131°
2026-04-30 13:44 42.60853 -52.88609 6061 ft 185 kts 178°
2026-04-30 13:44 42.59883 -52.89783 4346 ft 261 kts 288°
2026-04-30 13:44 42.61062 -52.90994 4407 ft 200 kts 39°
2026-04-30 13:45 42.59980 -52.91184 1675 ft 290 kts 254°
2026-04-30 13:45 42.59899 -52.93304 3546 ft 190 kts 295°
2026-04-30 13:45 42.60576 -52.94462 3501 ft 177 kts 10°
2026-04-30 13:46 42.60834 -52.93246 583 ft 253 kts 126°
2026-04-30 13:46 42.59881 -52.91704 1838 ft 173 kts 110°
2026-04-30 13:46 42.59756 -52.90554 2765 ft 109 kts 85°
2026-04-30 13:46 42.59256 -52.89830 681 ft 245 kts 214°
2026-04-30 13:47 42.59071 -52.89997 77 ft 271 kts 232°
2026-04-30 13:47 42.59034 -52.90052 -3 ft 7 kts 232°
2026-04-30 13:47 42.59020 -52.90076 2 ft 2 kts 228°
2026-04-30 13:47 42.59010 -52.90094 1 ft 1 kts 226°
2026-04-30 13:48 42.59003 -52.90107 2 ft 1 kts 223°
2026-04-30 13:48 42.58997 -52.90118 1 ft 1 kts 219°
2026-04-30 13:48 42.58991 -52.90128 1 ft 1 kts 214°
2026-04-30 13:48 42.58986 -52.90138 1 ft 1 kts 208°
2026-04-30 13:49 42.58979 -52.90147 1 ft 1 kts 203°
2026-04-30 13:49 42.58972 -52.90157 1 ft 1 kts 197°
2026-04-30 13:49 42.58962 -52.90167 1 ft 1 kts 190°